Terminal Aerodrome Forecast
Issued by NWS

Current Version | Previous Version | Graphics & Text | Print | Product List | Glossary On
Versions: 1 2 3 4 5 6 7 8 9 10 11 12 13 14 15 16 17 18 19 20 21 22 23 24 25
000
FTUS41 KRLX 060300 AAA
TAFCKB
TAF AMD
KCKB 060300Z 0603/0624 02004KT P6SM BKN150
     FM061500 11007KT 5SM -RA OVC040
     FM061700 14008KT 5SM -RA OVC016
     FM061900 15008KT 2SM -RA OVC007
     FM062100 15006KT 1SM -RA OVC004=

USA.gov is the U.S. government's official web portal to all federal, state and local government web resources and services.